Location: Newark
(50.8964°N, 1.4048°W)
Time: 06:41:56
(UTC+00:00)

N. Korean satellite - Pass Details

Date: 28 January 2020
Orbit: 456 x 505 km, 97.2° (Epoch: 27 February)

Event Time Altitude Azimuth Distance (km) Brightness Sun altitude
Rises 18:13:09 0° 215° (SW) 2,467 10.9 -13.2°
Reaches altitude 10° 18:16:20 10° 248° (WSW) 1,604 10.6 -13.7°
Maximum altitude 18:17:41 12° 272° (W) 1,496 10.3 -13.9°
Drops below altitude 10° 18:19:03 10° 295° (WNW) 1,615 10.0 -14.1°
Sets 18:22:17 0° 328° (NNW) 2,506 10.5 -14.6°
